W4KAB Weather Reports


time (UTC)temp
C
wind
direction
speed
KPH
gust
KPH
rain 1hr
cm
rain 24hr
cm
rain mn
cm
humidity
%
barometer
mb
20260510234826 24 235 0.0 0.0 0.00 0.00 0.00 48 1016.7
20260510234324 24 256 0.0 0.0 0.00 0.00 0.00 47 1016.7
20260510233819 24 203 0.0 0.0 0.00 0.00 0.00 47 1016.4
20260510233316 24 95 0.0 0.0 0.00 0.00 0.00 48 1016.2
20260510232812 25 65 0.0 0.0 0.00 0.00 0.00 47 1016.3
20260510232308 25 134 0.0 0.0 0.00 0.00 0.00 45 1016.2
20260510231805 25 236 0.0 0.0 0.00 0.00 0.00 45 1016.3
20260510231302 25 281 0.0 0.0 0.00 0.00 0.00 43 1016.3
20260510230759 26 248 0.0 0.0 0.00 0.00 0.00 43 1016.1
20260510230254 26 336 0.0 0.0 0.00 0.00 0.00 43 1016.1
20260510225751 26 254 0.0 0.0 0.00 0.00 0.00 42 1016.1
20260510225247 26 248 0.0 0.0 0.00 0.00 0.00 41 1015.9
20260510224743 27 165 0.0 0.0 0.00 0.00 0.00 39 1016.1
20260510224239 27 260 0.0 0.0 0.00 0.00 0.00 38 1015.7
20260510223737 27 258 0.0 1.6 0.00 0.00 0.00 37 1015.9
20260510223234 27 276 0.0 0.0 0.00 0.00 0.00 32 1015.9
20260510222731 27 253 0.0 0.0 0.00 0.00 0.00 35 1016.1
20260510222228 27 224 0.0 0.0 0.00 0.00 0.00 35 1015.8
20260510221723 27 265 0.0 1.6 0.00 0.00 0.00 33 1015.8
20260510221220 27 267 1.6 3.2 0.00 0.00 0.00 32 1015.8
20260510220717 27 239 3.2 3.2 0.00 0.00 0.00 33 1015.8
20260510220212 28 285 1.6 1.6 0.00 0.00 0.00 32 1015.7
20260510215709 28 301 3.2 4.8 0.00 0.00 0.00 31 1016.0
20260510215208 28 260 0.0 1.6 0.00 0.00 0.00 32 1015.7
20260510214704 28 249 0.0 0.0 0.00 0.00 0.00 33 1015.9
20260510214201 28 240 3.2 3.2 0.00 0.00 0.00 30 1015.7
20260510213658 28 260 1.6 1.6 0.00 0.00 0.00 31 1015.8
20260510213154 29 273 0.0 1.6 0.00 0.00 0.00 30 1015.8
20260510212650 28 265 1.6 1.6 0.00 0.00 0.00 33 1015.8
20260510212148 28 283 1.6 1.6 0.00 0.00 0.00 32 1015.8
20260510211644 27 264 1.6 1.6 0.00 0.00 0.00 33 1016.0
20260510211139 27 184 0.0 0.0 0.00 0.00 0.00 34 1015.7
20260510210636 27 67 3.2 3.2 0.00 0.00 0.00 34 1016.1
20260510210131 28 236 0.0 0.0 0.00 0.00 0.00 32 1016.0
20260510205630 28 229 3.2 3.2 0.00 0.00 0.00 35 1016.2
20260510205126 27 238 0.0 0.0 0.00 0.00 0.00 34 1015.9
20260510204623 27 53 1.6 1.6 0.00 0.00 0.00 40 1015.8
20260510204120 27 34 1.6 1.6 0.00 0.00 0.00 38 1015.8
20260510203616 27 259 1.6 1.6 0.00 0.00 0.00 35 1016.2
20260510203114 27 264 0.0 0.0 0.00 0.00 0.00 37 1016.1
20260510202613 27 189 0.0 0.0 0.00 0.00 0.00 40 1016.2
20260510202109 28 297 0.0 1.6 0.00 0.00 0.00 37 1016.1
20260510201606 28 314 1.6 1.6 0.00 0.00 0.00 30 1016.2
20260510201103 29 285 1.6 3.2 0.00 0.00 0.00 31 1016.2
20260510200559 30 255 1.6 1.6 0.00 0.00 0.00 29 1016.1
20260510200057 30 270 0.0 0.0 0.00 0.00 0.00 33 1016.2
20260510195554 29 335 1.6 1.6 0.00 0.00 0.00 32 1016.1
20260510195050 28 273 0.0 0.0 0.00 0.00 0.00 31 1016.3
20260510194545 29 249 1.6 3.2 0.00 0.00 0.00 31 1016.7
20260510194041 29 245 3.2 3.2 0.00 0.00 0.00 30 1016.8
20260510193536 30 247 1.6 3.2 0.00 0.00 0.00 29 1016.6
20260510193032 30 253 1.6 1.6 0.00 0.00 0.00 30 1016.6
20260510192532 30 348 0.0 1.6 0.00 0.00 0.00 29 1016.8
20260510192028 29 291 1.6 1.6 0.00 0.00 0.00 28 1016.8
20260510191525 28 279 0.0 0.0 0.00 0.00 0.00 33 1016.9
20260510191022 28 317 1.6 1.6 0.00 0.00 0.00 35 1016.8
20260510190519 28 237 4.8 8.0 0.00 0.00 0.00 31 1017.0
20260510190016 28 245 4.8 4.8 0.00 0.00 0.00 32 1017.1
20260510185513 29 267 3.2 3.2 0.00 0.00 0.00 31 1016.8
20260510185010 28 236 0.0 1.6 0.00 0.00 0.00 28 1016.6
20260510184508 28 244 4.8 4.8 0.00 0.00 0.00 28 1016.9
20260510184003 29 291 1.6 1.6 0.00 0.00 0.00 31 1016.9
20260510183458 30 287 0.0 1.6 0.00 0.00 0.00 34 1016.9
20260510182954 30 307 0.0 0.0 0.00 0.00 0.00 30 1016.9
20260510182450 29 328 1.6 1.6 0.00 0.00 0.00 31 1016.9
20260510181945 28 19 0.0 1.6 0.00 0.00 0.00 31 1017.1
20260510181444 28 253 1.6 3.2 0.00 0.00 0.00 32 1017.3
20260510180939 28 289 1.6 1.6 0.00 0.00 0.00 32 1017.2
20260510180437 28 293 0.0 0.0 0.00 0.00 0.00 32 1017.5
20260510175934 28 274 1.6 1.6 0.00 0.00 0.00 32 1017.4
20260510175430 28 199 1.6 1.6 0.00 0.00 0.00 30 1017.3
20260510174925 28 294 1.6 3.2 0.00 0.00 0.00 33 1017.5
20260510174424 28 234 4.8 4.8 0.00 0.00 0.00 32 1017.6
20260510173920 28 254 4.8 4.8 0.00 0.00 0.00 30 1017.6
20260510173415 28 232 4.8 4.8 0.00 0.00 0.00 30 1017.5
20260510172912 28 246 0.0 1.6 0.00 0.00 0.00 31 1017.6
20260510172408 27 234 3.2 3.2 0.00 0.00 0.00 29 1017.3
20260510171904 28 224 0.0 1.6 0.00 0.00 0.00 28 1017.7
20260510171402 27 295 1.6 1.6 0.00 0.00 0.00 31 1017.8
20260510170859 27 59 3.2 3.2 0.00 0.00 0.00 30 1017.7
20260510170355 28 249 1.6 1.6 0.00 0.00 0.00 34 1017.8
20260510165850 27 225 0.0 0.0 0.00 0.00 0.00 31 1017.8
20260510165347 27 211 0.0 0.0 0.00 0.00 0.00 35 1017.7
20260510164844 27 220 0.0 0.0 0.00 0.00 0.00 25 1017.8
20260510164342 28 240 1.6 1.6 0.00 0.00 0.00 33 1017.8
20260510163841 27 273 0.0 1.6 0.00 0.00 0.00 30 1017.7
20260510163338 28 269 1.6 3.2 0.00 0.00 0.00 32 1017.8
20260510162831 27 149 0.0 0.0 0.00 0.00 0.00 31 1017.8
20260510162324 26 224 0.0 0.0 0.00 0.00 0.00 31 1018.3
20260510161819 26 234 1.6 1.6 0.00 0.00 0.00 35 1018.1
20260510161315 26 205 0.0 0.0 0.00 0.00 0.00 39 1018.3
20260510160812 26 206 0.0 0.0 0.00 0.00 0.00 37 1018.3
20260510160308 25 204 0.0 0.0 0.00 0.00 0.00 39 1018.3
20260510155803 25 212 0.0 0.0 0.00 0.00 0.00 37 1018.4
20260510155300 26 203 1.6 1.6 0.00 0.00 0.00 42 1018.3
20260510154756 26 190 0.0 0.0 0.00 0.00 0.00 42 1018.2
20260510154252 25 177 0.0 0.0 0.00 0.00 0.00 43 1018.4
20260510153746 25 194 1.6 1.6 0.00 0.00 0.00 45 1018.4
20260510153243 25 223 0.0 0.0 0.00 0.00 0.00 42 1018.2
20260510152740 24 253 0.0 0.0 0.00 0.00 0.00 44 1018.3
20260510152236 24 198 0.0 0.0 0.00 0.00 0.00 47 1018.3
20260510151733 23 192 0.0 0.0 0.00 0.00 0.00 46 1018.5
20260510151232 23 212 3.2 4.8 0.00 0.00 0.00 53 1018.4
20260510150727 22 237 0.0 0.0 0.00 0.00 0.00 48 1018.4
20260510150222 22 220 3.2 3.2 0.00 0.00 0.00 48 1018.6
20260510145719 22 277 0.0 0.0 0.00 0.00 0.00 52 1018.4
20260510145215 21 285 0.0 0.0 0.00 0.00 0.00 51 1018.8
20260510144711 21 254 0.0 0.0 0.00 0.00 0.00 52 1018.4
20260510144208 21 284 0.0 0.0 0.00 0.00 0.00 49 1018.2
20260510143703 21 228 3.2 3.2 0.00 0.00 0.00 49 1018.6
20260510143200 21 271 0.0 0.0 0.00 0.00 0.00 55 1018.4
20260510142656 20 272 0.0 0.0 0.00 0.00 0.00 58 1018.5
20260510142153 20 310 0.0 0.0 0.00 0.00 0.00 62 1018.4
20260510141650 20 270 0.0 0.0 0.00 0.00 0.00 63 1018.5
20260510141148 20 208 1.6 1.6 0.00 0.00 0.00 53 1018.4
20260510140644 19 236 0.0 0.0 0.00 0.00 0.00 57 1018.4
20260510140143 19 228 0.0 0.0 0.00 0.00 0.00 60 1018.5
20260510135639 19 230 0.0 0.0 0.00 0.00 0.00 60 1018.6
20260510135135 18 262 0.0 0.0 0.00 0.00 0.00 60 1018.6
20260510134632 18 247 0.0 0.0 0.00 0.00 0.00 63 1018.5
20260510134129 18 223 0.0 0.0 0.00 0.00 0.00 66 1018.6
20260510133626 18 256 0.0 0.0 0.00 0.00 0.00 70 1018.6
20260510133121 17 245 0.0 0.0 0.00 0.00 0.00 67 1018.6
20260510132618 17 258 0.0 0.0 0.00 0.00 0.00 73 1018.6
20260510132115 17 256 0.0 0.0 0.00 0.00 0.00 79 1018.5
20260510131613 16 241 0.0 0.0 0.00 0.00 0.00 81 1018.5
20260510131110 16 248 0.0 0.0 0.00 0.00 0.00 82 1018.7
20260510130606 16 254 0.0 0.0 0.00 0.00 0.00 82 1018.6
20260510130104 15 251 0.0 0.0 0.00 0.00 0.00 89 1018.3
20260510125600 15 239 0.0 0.0 0.00 0.00 0.00 90 1018.3
20260510125056 15 255 0.0 0.0 0.00 0.00 0.00 91 1018.2
20260510124553 15 251 0.0 0.0 0.00 0.00 0.00 92 1018.3
20260510124050 14 250 0.0 0.0 0.00 0.00 0.00 93 1018.2
20260510123545 13 257 0.0 0.0 0.00 0.00 0.00 94 1018.3
20260510123041 13 233 0.0 0.0 0.00 0.00 0.00 95 1018.2
20260510122537 13 246 0.0 0.0 0.00 0.00 0.00 95 1018.2
20260510122033 12 262 0.0 0.0 0.00 0.00 0.00 97 1018.2
20260510121531 12 256 0.0 0.0 0.00 0.00 0.00 97 1018.0
20260510121028 12 229 0.0 0.0 0.00 0.00 0.00 98 1018.1
20260510120526 12 257 0.0 0.0 0.00 0.00 0.00 98 1017.9
20260510120021 12 266 0.0 0.0 0.00 0.00 0.00 99 1017.9
20260510115518 11 256 0.0 0.0 0.00 0.00 0.00 99 1017.8
20260510115015 11 230 0.0 0.0 0.00 0.00 0.00 99 1017.7
20260510114511 11 275 0.0 0.0 0.00 0.00 0.00 99 1017.7
20260510114007 11 243 0.0 0.0 0.00 0.00 0.00 99 1017.6
20260510113502 11 250 0.0 0.0 0.00 0.00 0.00 99 1017.2
20260510113000 11 259 0.0 0.0 0.00 0.00 0.00 99 1017.2
20260510112457 11 251 0.0 0.0 0.00 0.00 0.00 99 1017.0
20260510111953 11 250 0.0 0.0 0.00 0.00 0.00 99 1016.9
20260510111449 11 248 0.0 0.0 0.00 0.00 0.00 99 1016.8
20260510110945 11 258 0.0 0.0 0.00 0.00 0.00 99 1016.9
20260510110442 11 263 0.0 0.0 0.00 0.00 0.00 99 1016.8
20260510105938 10 249 0.0 0.0 0.00 0.00 0.00 99 1016.8
20260510105433 10 248 0.0 0.0 0.00 0.00 0.00 99 1016.8
20260510104929 10 240 0.0 0.0 0.00 0.00 0.00 99 1016.7
20260510104426 10 256 0.0 0.0 0.00 0.00 0.00 99 1016.7
20260510103922 10 253 0.0 0.0 0.00 0.00 0.00 99 1016.6
20260510103420 10 258 0.0 0.0 0.00 0.00 0.00 99 1016.6
20260510102914 10 266 0.0 0.0 0.00 0.00 0.00 99 1016.4
20260510102410 10 255 0.0 0.0 0.00 0.00 0.00 99 1016.2
20260510101902 10 248 0.0 0.0 0.00 0.00 0.00 99 1016.1
20260510101400 10 252 0.0 0.0 0.00 0.00 0.00 99 1015.8
20260510100857 10 259 0.0 0.0 0.00 0.00 0.00 99 1016.0
20260510100354 10 262 0.0 0.0 0.00 0.00 0.00 99 1016.0
20260510095850 11 258 0.0 0.0 0.00 0.00 0.00 99 1015.8
20260510095345 11 264 0.0 0.0 0.00 0.00 0.00 99 1015.8
20260510094845 11 259 0.0 0.0 0.00 0.00 0.00 99 1015.7
20260510094340 11 248 0.0 0.0 0.00 0.00 0.00 99 1015.6
20260510093837 11 256 0.0 0.0 0.00 0.00 0.00 99 1015.8
20260510093332 11 249 0.0 0.0 0.00 0.00 0.00 99 1015.6
20260510092829 11 253 0.0 0.0 0.00 0.00 0.00 99 1015.5
20260510092324 11 257 0.0 0.0 0.00 0.00 0.00 99 1015.6
20260510091821 11 250 0.0 0.0 0.00 0.00 0.00 99 1015.5
20260510091318 11 250 0.0 0.0 0.00 0.00 0.00 99 1015.6
20260510090814 11 259 0.0 0.0 0.00 0.00 0.00 99 1015.5
20260510090311 11 254 0.0 0.0 0.00 0.00 0.00 99 1015.4
20260510085807 11 251 0.0 0.0 0.00 0.00 0.00 99 1015.2
20260510085301 12 252 0.0 1.6 0.00 0.00 0.00 99 1015.4
20260510084757 12 237 0.0 0.0 0.00 0.00 0.00 99 1015.5
20260510084254 12 251 0.0 0.0 0.00 0.00 0.00 99 1015.3
20260510083751 11 256 0.0 0.0 0.00 0.00 0.00 99 1015.3
20260510083248 12 263 0.0 0.0 0.00 0.00 0.00 99 1015.2
20260510082743 12 251 0.0 0.0 0.00 0.00 0.00 99 1015.0
20260510082240 12 247 0.0 0.0 0.00 0.00 0.00 99 1015.1
20260510081739 12 259 0.0 0.0 0.00 0.00 0.00 99 1015.0
20260510081235 12 253 0.0 0.0 0.00 0.00 0.00 99 1015.0
20260510080731 12 261 0.0 0.0 0.00 0.00 0.00 99 1014.9
20260510080227 12 259 0.0 0.0 0.00 0.00 0.00 99 1014.8
20260510075723 12 259 0.0 0.0 0.00 0.00 0.00 99 1014.8
20260510075221 12 260 0.0 0.0 0.00 0.00 0.00 99 1014.7
20260510074718 13 258 0.0 0.0 0.00 0.00 0.00 99 1014.5
20260510074214 13 258 0.0 0.0 0.00 0.00 0.00 99 1014.5
20260510073711 13 258 0.0 0.0 0.00 0.00 0.00 99 1014.5
20260510073207 13 258 0.0 0.0 0.00 0.00 0.00 99 1014.7
20260510072703 13 259 0.0 0.0 0.00 0.00 0.00 99 1014.6
20260510072200 13 258 0.0 0.0 0.00 0.00 0.00 99 1014.7
20260510071656 13 275 0.0 0.0 0.00 0.00 0.00 99 1014.3
20260510071153 13 307 0.0 0.0 0.00 0.00 0.00 99 1014.5
20260510070650 13 260 0.0 0.0 0.00 0.00 0.00 99 1014.6
20260510070148 13 253 0.0 0.0 0.00 0.00 0.00 99 1014.5
20260510065643 13 257 0.0 0.0 0.00 0.00 0.00 99 1014.9
20260510065139 13 263 0.0 0.0 0.00 0.00 0.00 99 1014.4
20260510064636 13 265 0.0 0.0 0.00 0.00 0.00 99 1014.8
20260510064133 14 262 0.0 0.0 0.00 0.00 0.00 99 1014.7
20260510063630 14 265 0.0 0.0 0.00 0.00 0.00 99 1014.6
20260510063127 14 262 0.0 0.0 0.00 0.00 0.00 98 1014.8
20260510062623 14 262 0.0 0.0 0.00 0.00 0.00 98 1014.7
20260510062118 14 262 0.0 0.0 0.00 0.00 0.00 98 1014.8
20260510061614 14 273 0.0 0.0 0.00 0.00 0.00 98 1014.8
20260510061112 14 273 0.0 0.0 0.00 0.00 0.00 98 1014.8
20260510060608 14 283 0.0 0.0 0.00 0.00 0.00 98 1014.8
20260510060105 14 297 0.0 0.0 0.00 0.00 0.00 97 1014.9
20260510055600 15 354 0.0 0.0 0.00 0.00 0.00 97 1015.0
20260510055059 15 309 0.0 0.0 0.00 0.00 0.00 97 1015.0
20260510054554 15 259 0.0 0.0 0.00 0.00 0.00 97 1015.0
20260510054050 15 265 0.0 0.0 0.00 0.00 0.00 97 1014.7
20260510053549 15 254 0.0 0.0 0.00 0.00 0.00 97 1014.7
20260510053047 15 259 0.0 0.0 0.00 0.00 0.00 96 1014.8
20260510052543 15 255 0.0 0.0 0.00 0.00 0.00 96 1014.7
20260510052039 15 271 0.0 0.0 0.00 0.00 0.00 95 1014.7
20260510051534 15 271 0.0 0.0 0.00 0.00 0.00 95 1014.8
20260510051031 15 271 0.0 0.0 0.00 0.00 0.00 94 1015.0
20260510050529 15 271 0.0 0.0 0.00 0.00 0.00 94 1015.2
20260510050026 16 266 0.0 0.0 0.00 0.00 0.00 94 1015.0
20260510045523 16 260 0.0 0.0 0.00 0.00 0.00 94 1014.9
20260510045019 16 258 0.0 0.0 0.00 0.00 0.00 94 1014.9
20260510044516 16 256 0.0 0.0 0.00 0.00 0.00 93 1014.6
20260510044013 16 258 0.0 0.0 0.00 0.00 0.00 93 1014.5
20260510043508 16 253 0.0 0.0 0.00 0.00 0.00 92 1014.7
20260510043003 16 262 0.0 0.0 0.00 0.00 0.00 92 1014.7
20260510042458 16 256 0.0 0.0 0.00 0.00 0.00 92 1015.0
20260510041953 16 253 0.0 0.0 0.00 0.00 0.00 91 1014.7
20260510041450 16 259 0.0 0.0 0.00 0.00 0.00 91 1014.9
20260510040948 16 257 0.0 0.0 0.00 0.00 0.00 91 1014.9
20260510040444 17 258 0.0 0.0 0.00 0.00 0.00 90 1014.7
20260510035940 17 258 0.0 0.0 0.00 0.00 0.00 91 1014.6
20260510035436 17 258 0.0 0.0 0.00 0.00 0.00 90 1014.5
20260510034931 17 254 0.0 0.0 0.00 0.00 0.00 90 1014.6
20260510034430 17 233 0.0 0.0 0.00 0.00 0.00 90 1014.5
20260510033926 17 262 0.0 0.0 0.00 0.00 0.00 90 1014.5
20260510033422 17 258 0.0 0.0 0.00 0.00 0.00 90 1014.7
20260510032919 17 260 0.0 0.0 0.00 0.00 0.00 90 1014.7
20260510032416 17 258 0.0 0.0 0.00 0.00 0.00 90 1014.6
20260510031911 17 271 0.0 0.0 0.00 0.00 0.00 90 1014.6
20260510031406 17 285 0.0 0.0 0.00 0.00 0.00 89 1014.6
20260510030901 17 294 0.0 0.0 0.00 0.00 0.00 87 1014.7
20260510030358 18 271 0.0 0.0 0.00 0.00 0.00 86 1014.7
20260510025855 18 261 0.0 0.0 0.00 0.00 0.00 85 1014.6
20260510025353 18 251 0.0 0.0 0.00 0.00 0.00 85 1014.8
20260510024850 18 258 0.0 0.0 0.00 0.00 0.00 84 1014.7
20260510024346 18 251 0.0 0.0 0.00 0.00 0.00 84 1014.6
20260510023842 18 261 0.0 0.0 0.00 0.00 0.00 84 1014.4
20260510023339 18 256 0.0 0.0 0.00 0.00 0.00 84 1014.4
20260510022837 18 253 1.6 1.6 0.00 0.00 0.00 85 1014.3
20260510022335 18 259 1.6 1.6 0.00 0.00 0.00 84 1014.3
20260510021834 18 268 0.0 0.0 0.00 0.00 0.00 83 1014.1
20260510021333 18 264 0.0 0.0 0.00 0.00 0.00 83 1014.2
20260510020828 18 244 0.0 1.6 0.00 0.00 0.00 83 1014.1
20260510020323 18 266 0.0 0.0 0.00 0.00 0.00 83 1014.3
20260510015819 18 261 1.6 1.6 0.00 0.00 0.00 83 1014.1
20260510015315 19 255 0.0 0.0 0.00 0.00 0.00 83 1013.8
20260510014810 19 259 0.0 0.0 0.00 0.00 0.00 82 1013.5
20260510014308 19 243 1.6 3.2 0.00 0.00 0.00 82 1013.8
20260510013804 18 254 0.0 1.6 0.00 0.00 0.00 83 1013.8
20260510013259 18 249 0.0 0.0 0.00 0.00 0.00 85 1013.9
20260510012755 18 264 0.0 0.0 0.00 0.00 0.00 86 1013.4
20260510012250 17 252 0.0 0.0 0.00 0.00 0.00 87 1013.3
20260510011749 17 285 0.0 0.0 0.00 0.00 0.00 88 1013.4
20260510011245 17 321 0.0 0.0 0.00 0.00 0.00 87 1013.2
20260510010742 17 352 0.0 1.6 0.00 0.00 0.00 87 1013.2
20260510010239 17 287 0.0 0.0 0.00 0.00 0.00 86 1013.0
20260510005736 18 310 0.0 0.0 0.00 0.00 0.00 86 1012.9
20260510005232 18 292 0.0 0.0 0.00 0.00 0.00 86 1012.8
20260510004730 18 292 0.0 0.0 0.00 0.00 0.00 85 1012.6
20260510004227 18 65 0.0 0.0 0.00 0.00 0.00 85 1012.6
20260510003725 18 65 0.0 0.0 0.00 0.00 0.00 84 1012.7
20260510003221 18 81 0.0 0.0 0.00 0.00 0.00 84 1012.4
20260510002719 18 53 0.0 0.0 0.00 0.00 0.00 84 1012.3
20260510002217 18 83 0.0 0.0 0.00 0.00 0.00 83 1012.3
20260510001714 19 84 0.0 1.6 0.00 0.00 0.00 83 1012.2
20260510001213 19 85 0.0 0.0 0.00 0.00 0.00 83 1012.0
20260510000708 20 236 0.0 0.0 0.00 0.00 0.00 82 1012.1
20260510000206 20 278 0.0 0.0 0.00 0.00 0.00 80 1011.9
20260509235702 20 264 0.0 0.0 0.00 0.00 0.00 80 1011.9
20260509235158 20 279 0.0 0.0 0.00 0.00 0.00 79 1012.0